Simultaneous Nadir Overpasses (SNOs) Predictions

Prediction of SNOs between NOAA-15 and METOP-C Satellite Orbit:

Table of predicted SNOs for the next 14.0 days since TLE Epoch: 8/19/2023
Index Date (NOAA-15) Time (NOAA-15) Lat,Lon (NOAA-15) SZA (NOAA-15 ) Date (METOP-C) Time (METOP-C) Lat,Lon (METOP-C) SZA (METOP-C ) Distance(km) Time Diff (sec)
1 08/27/2023 17:24:35 81.09, -43.05 73.00 08/27/2023 17:23:23 81.08, -43.11 72.96 1.54 72
2 08/27/2023 18:15:04 -81.09, 124.38 106.99 08/27/2023 18:14:03 -81.09, 124.32 107.02 1.12 61
3 08/27/2023 19:05:36 81.10, -68.39 73.02 08/27/2023 19:04:44 81.09, -68.26 73.01 2.34 52
4 08/27/2023 19:56:05 -81.09, 99.05 106.97 08/27/2023 19:55:24 -81.09, 99.17 106.97 2.12 41
5 08/27/2023 20:46:36 81.08, -93.36 73.06 08/27/2023 20:46:05 81.10, -93.41 73.06 1.76 31
6 08/27/2023 21:37:06 -81.10, 73.71 106.95 08/27/2023 21:36:46 -81.09, 73.65 106.97 1.57 20
7 08/27/2023 22:27:38 81.10,-119.07 73.06 08/27/2023 22:27:27 81.09,-118.93 73.06 2.83 11
8 08/27/2023 23:18:07 -81.10, 48.38 106.93 08/27/2023 23:18:07 -81.09, 48.50 106.92 2.18 0
9 08/28/2023 00:08:38 81.09,-144.04 73.10 08/28/2023 00:08:48 81.10,-144.08 73.11 1.01 10
10 08/28/2023 00:59:07 -81.09, 23.42 106.88 08/28/2023 00:59:28 -81.10, 23.35 106.87 1.90 21
11 08/28/2023 01:49:39 81.09,-169.38 73.12 08/28/2023 01:50:09 81.10,-169.23 73.16 2.83 30
12 08/28/2023 02:40:09 -81.11, -2.29 106.89 08/28/2023 02:40:50 -81.09, -2.17 106.87 2.47 41
13 08/28/2023 03:30:40 81.10, 165.28 73.14 08/28/2023 03:31:31 81.10, 165.25 73.16 0.54 51
14 08/28/2023 04:21:09 -81.09, -27.25 106.84 08/28/2023 04:22:11 -81.10, -27.32 106.82 1.40 62



Historial Predications of SNOs between NOAA-15 and METOP-C
